Location: Gunung Kajang
(2.4167°N, 113.7167°E)
Time: 16:14:42
(UTC+00:00)

Cosmos 1833 Rocket - Pass Details

Date: 29 May 2022
Orbit: 832 x 839 km, 71.0° (Epoch: 29 June)

Event Time Altitude Azimuth Distance (km) Brightness Sun altitude
Exits shadow 20:53:30 30° 280° (W) 1,449 3.5 -19.7°
Maximum altitude 20:53:47 30° 286° (WNW) 1,444 3.5 -19.6°
Drops below altitude 10° 20:58:37 10° 346° (NNW) 2,430 5.2 -18.5°
Sets 21:01:20 0° 357° (N) 3,361 6.1 -17.9°
